owner,sensor,date,latitude,longitude,vertical_datum,mass_concentration_of_oxygen_in_sea_water,qcFlag 
SCCF RECON,ioos:station:SCCF:56:1,2016-12-01T00:00:00Z,26.4645,-82.1044,1.53,6.55,1111122 
SCCF RECON,ioos:station:SCCF:56:1,2016-12-01T01:00:00Z,26.4645,-82.1044,1.54,6.47,1111122 
SCCF RECON,ioos:station:SCCF:56:1,2016-12-01T02:00:00Z,26.4645,-82.1044,1.63,6.1,1111122 
SCCF RECON,ioos:station:SCCF:56:1,2016-12-01T03:00:00Z,26.4645,-82.1044,1.76,6.22,1111122 
SCCF RECON,ioos:station:SCCF:56:1,2016-12-01T04:00:00Z,26.4645,-82.1044,1.85,6.1,1111122 
SCCF RECON,ioos:station:SCCF:56:1,2016-12-01T05:00:00Z,26.4645,-82.1044,1.91,6.11,1111122 
SCCF RECON,ioos:station:SCCF:56:1,2016-12-01T06:00:00Z,26.4645,-82.1044,1.93,5.91,1111122 
SCCF RECON,ioos:station:SCCF:56:1,2016-12-01T07:00:00Z,26.4645,-82.1044,1.86,5.81,1111122 
SCCF RECON,ioos:station:SCCF:56:1,2016-12-01T08:00:00Z,26.4645,-82.1044,1.73,5.37,1111122 
SCCF RECON,ioos:station:SCCF:56:1,2016-12-01T09:00:00Z,26.4645,-82.1044,1.6,4.97,1111122 
SCCF RECON,ioos:station:SCCF:56:1,2016-12-01T10:00:00Z,26.4645,-82.1044,1.472,4.34,1111122 
SCCF RECON,ioos:station:SCCF:56:1,2016-12-01T11:00:00Z,26.4645,-82.1044,1.35,3.85,1111122 
SCCF RECON,ioos:station:SCCF:56:1,2016-12-01T12:00:00Z,26.4645,-82.1044,1.24,3.47,1111122 
SCCF RECON,ioos:station:SCCF:56:1,2016-12-01T13:00:00Z,26.4645,-82.1044,1.14,3.13,1111122 
SCCF RECON,ioos:station:SCCF:56:1,2016-12-01T14:00:00Z,26.4645,-82.1044,1.1,2.89,1111122 
SCCF RECON,ioos:station:SCCF:56:1,2016-12-01T15:00:00Z,26.4645,-82.1044,1.2,3.31,1111122 
SCCF RECON,ioos:station:SCCF:56:1,2016-12-01T16:00:00Z,26.4645,-82.1044,1.36,4.8,1111122 
SCCF RECON,ioos:station:SCCF:56:1,2016-12-01T17:00:00Z,26.4645,-82.1044,1.504,6.53,1111122 
SCCF RECON,ioos:station:SCCF:56:1,2016-12-01T18:00:00Z,26.4645,-82.1044,1.6,6.64,1111122 
SCCF RECON,ioos:station:SCCF:56:1,2016-12-01T19:00:00Z,26.4645,-82.1044,1.67,6.32,1111122 
SCCF RECON,ioos:station:SCCF:56:1,2016-12-01T20:00:00Z,26.4645,-82.1044,1.67,6.11,1111122 
SCCF RECON,ioos:station:SCCF:56:1,2016-12-01T21:00:00Z,26.4645,-82.1044,1.626,5.98,1111122 
SCCF RECON,ioos:station:SCCF:56:1,2016-12-01T22:00:00Z,26.4645,-82.1044,1.56,6.2,1111122 
SCCF RECON,ioos:station:SCCF:56:1,2016-12-01T23:00:00Z,26.4645,-82.1044,1.51,6.05,1111122 
SCCF RECON,ioos:station:SCCF:56:1,2016-12-02T00:00:00Z,26.4645,-82.1044,1.5,5.54,1111122 
SCCF RECON,ioos:station:SCCF:56:1,2016-12-02T01:00:00Z,26.4645,-82.1044,1.49,5.53,1111122 
SCCF RECON,ioos:station:SCCF:56:1,2016-12-02T02:00:00Z,26.4645,-82.1044,1.52,5.79,1111122 
SCCF RECON,ioos:station:SCCF:56:1,2016-12-02T03:00:00Z,26.4645,-82.1044,1.61,5.77,1111122 
SCCF RECON,ioos:station:SCCF:56:1,2016-12-02T04:00:00Z,26.4645,-82.1044,1.711,5.51,1111122 
SCCF RECON,ioos:station:SCCF:56:1,2016-12-02T05:00:00Z,26.4645,-82.1044,1.8,5.51,1111122 
SCCF RECON,ioos:station:SCCF:56:1,2016-12-02T06:00:00Z,26.4645,-82.1044,1.84,5.46,1111122 
SCCF RECON,ioos:station:SCCF:56:1,2016-12-02T07:00:00Z,26.4645,-82.1044,1.83,5.59,1111122 
SCCF RECON,ioos:station:SCCF:56:1,2016-12-02T08:00:00Z,26.4645,-82.1044,1.77,5.2,1111122 
SCCF RECON,ioos:station:SCCF:56:1,2016-12-02T09:00:00Z,26.4645,-82.1044,1.643,4.68,1111122 
SCCF RECON,ioos:station:SCCF:56:1,2016-12-02T10:00:00Z,26.4645,-82.1044,1.5,4.17,1111122 
SCCF RECON,ioos:station:SCCF:56:1,2016-12-02T11:00:00Z,26.4645,-82.1044,1.38,3.59,1111122 
SCCF RECON,ioos:station:SCCF:56:1,2016-12-02T12:00:00Z,26.4645,-82.1044,1.263,3.16,1111122 
SCCF RECON,ioos:station:SCCF:56:1,2016-12-02T13:00:00Z,26.4645,-82.1044,1.135,2.79,1111122 
SCCF RECON,ioos:station:SCCF:56:1,2016-12-02T14:00:00Z,26.4645,-82.1044,1.04,2.52,1111122 
SCCF RECON,ioos:station:SCCF:56:1,2016-12-02T15:00:00Z,26.4645,-82.1044,1.03,2.57,1111122 
SCCF RECON,ioos:station:SCCF:56:1,2016-12-02T16:00:00Z,26.4645,-82.1044,1.15,3.34,1111122 
SCCF RECON,ioos:station:SCCF:56:1,2016-12-02T17:00:00Z,26.4645,-82.1044,1.3,5.75,1111122 
SCCF RECON,ioos:station:SCCF:56:1,2016-12-02T18:00:00Z,26.4645,-82.1044,1.415,6.96,1111122 
SCCF RECON,ioos:station:SCCF:56:1,2016-12-02T19:00:00Z,26.4645,-82.1044,1.51,7.19,1111122 
SCCF RECON,ioos:station:SCCF:56:1,2016-12-02T20:00:00Z,26.4645,-82.1044,1.56,7.03,1111122 
SCCF RECON,ioos:station:SCCF:56:1,2016-12-02T21:00:00Z,26.4645,-82.1044,1.58,6.69,1111122 
SCCF RECON,ioos:station:SCCF:56:1,2016-12-02T22:00:00Z,26.4645,-82.1044,1.54,7.48,1111122 
SCCF RECON,ioos:station:SCCF:56:1,2016-12-02T23:00:00Z,26.4645,-82.1044,1.48,7.06,1111122 
SCCF RECON,ioos:station:SCCF:56:1,2016-12-03T00:00:00Z,26.4645,-82.1044,1.431,6.96,1111122 
SCCF RECON,ioos:station:SCCF:56:1,2016-12-03T01:00:00Z,26.4645,-82.1044,1.411,6.82,1111122 
SCCF RECON,ioos:station:SCCF:56:1,2016-12-03T02:00:00Z,26.4645,-82.1044,1.459,6.63,1111122 
SCCF RECON,ioos:station:SCCF:56:1,2016-12-03T03:00:00Z,26.4645,-82.1044,1.522,6.33,1111122 
SCCF RECON,ioos:station:SCCF:56:1,2016-12-03T04:00:00Z,26.4645,-82.1044,1.606,6.01,1111122 
SCCF RECON,ioos:station:SCCF:56:1,2016-12-03T05:00:00Z,26.4645,-82.1044,1.68,5.79,1111122 
SCCF RECON,ioos:station:SCCF:56:1,2016-12-03T06:00:00Z,26.4645,-82.1044,1.71,5.73,1111122 
SCCF RECON,ioos:station:SCCF:56:1,2016-12-03T07:00:00Z,26.4645,-82.1044,1.691,5.72,1111122 
SCCF RECON,ioos:station:SCCF:56:1,2016-12-03T08:00:00Z,26.4645,-82.1044,1.649,5.58,1111122 
SCCF RECON,ioos:station:SCCF:56:1,2016-12-03T09:00:00Z,26.4645,-82.1044,1.571,5.16,1111122 
SCCF RECON,ioos:station:SCCF:56:1,2016-12-03T10:00:00Z,26.4645,-82.1044,1.479,4.9,1111122 
SCCF RECON,ioos:station:SCCF:56:1,2016-12-03T11:00:00Z,26.4645,-82.1044,1.359,4.37,1111122 
SCCF RECON,ioos:station:SCCF:56:1,2016-12-03T12:00:00Z,26.4645,-82.1044,1.232,3.99,1111122 
SCCF RECON,ioos:station:SCCF:56:1,2016-12-03T13:00:00Z,26.4645,-82.1044,1.129,3.51,1111122 
SCCF RECON,ioos:station:SCCF:56:1,2016-12-03T14:00:00Z,26.4645,-82.1044,1.034,3.29,1111122 
SCCF RECON,ioos:station:SCCF:56:1,2016-12-03T15:00:00Z,26.4645,-82.1044,0.987,3.18,1111122 
SCCF RECON,ioos:station:SCCF:56:1,2016-12-03T16:00:00Z,26.4645,-82.1044,1.062,4.08,1111122 
SCCF RECON,ioos:station:SCCF:56:1,2016-12-03T17:00:00Z,26.4645,-82.1044,1.191,6.39,1111122 
SCCF RECON,ioos:station:SCCF:56:1,2016-12-03T18:00:00Z,26.4645,-82.1044,1.3,7.99,1111122 
SCCF RECON,ioos:station:SCCF:56:1,2016-12-03T19:00:00Z,26.4645,-82.1044,1.4,8.06,1111122 
SCCF RECON,ioos:station:SCCF:56:1,2016-12-03T20:00:00Z,26.4645,-82.1044,1.5,8.26,1111122 
SCCF RECON,ioos:station:SCCF:56:1,2016-12-03T21:00:00Z,26.4645,-82.1044,1.57,7.71,1111122 
SCCF RECON,ioos:station:SCCF:56:1,2016-12-03T22:00:00Z,26.4645,-82.1044,1.58,7.62,1111122 
SCCF RECON,ioos:station:SCCF:56:1,2016-12-03T23:00:00Z,26.4645,-82.1044,1.551,7.81,1111122 
SCCF RECON,ioos:station:SCCF:56:1,2016-12-04T00:00:00Z,26.4645,-82.1044,1.51,7.26,1111122 
SCCF RECON,ioos:station:SCCF:56:1,2016-12-04T01:00:00Z,26.4645,-82.1044,1.48,7.02,1111122 
SCCF RECON,ioos:station:SCCF:56:1,2016-12-04T02:00:00Z,26.4645,-82.1044,1.46,6.84,1111122 
SCCF RECON,ioos:station:SCCF:56:1,2016-12-04T03:00:00Z,26.4645,-82.1044,1.49,6.45,1111122 
SCCF RECON,ioos:station:SCCF:56:1,2016-12-04T04:00:00Z,26.4645,-82.1044,1.579,6.41,1111122 
SCCF RECON,ioos:station:SCCF:56:1,2016-12-04T05:00:00Z,26.4645,-82.1044,1.65,6.52,1111122 
SCCF RECON,ioos:station:SCCF:56:1,2016-12-04T06:00:00Z,26.4645,-82.1044,1.7,6.24,1111122 
SCCF RECON,ioos:station:SCCF:56:1,2016-12-04T07:00:00Z,26.4645,-82.1044,1.729,6.05,1111122 
SCCF RECON,ioos:station:SCCF:56:1,2016-12-04T08:00:00Z,26.4645,-82.1044,1.73,5.88,1111122 
SCCF RECON,ioos:station:SCCF:56:1,2016-12-04T09:00:00Z,26.4645,-82.1044,1.698,5.49,1111122 
SCCF RECON,ioos:station:SCCF:56:1,2016-12-04T10:00:00Z,26.4645,-82.1044,1.63,5.62,1111122 
SCCF RECON,ioos:station:SCCF:56:1,2016-12-04T11:00:00Z,26.4645,-82.1044,1.56,5.43,1111122 
SCCF RECON,ioos:station:SCCF:56:1,2016-12-04T12:00:00Z,26.4645,-82.1044,1.46,4.92,1111122 
SCCF RECON,ioos:station:SCCF:56:1,2016-12-04T13:00:00Z,26.4645,-82.1044,1.367,4.47,1111122 
SCCF RECON,ioos:station:SCCF:56:1,2016-12-04T14:00:00Z,26.4645,-82.1044,1.27,4.19,1111122 
SCCF RECON,ioos:station:SCCF:56:1,2016-12-04T15:00:00Z,26.4645,-82.1044,1.19,3.91,1111122 
SCCF RECON,ioos:station:SCCF:56:1,2016-12-04T16:00:00Z,26.4645,-82.1044,1.161,3.96,1111122 
SCCF RECON,ioos:station:SCCF:56:1,2016-12-04T17:00:00Z,26.4645,-82.1044,1.25,6.8,1111122 
SCCF RECON,ioos:station:SCCF:56:1,2016-12-04T18:00:00Z,26.4645,-82.1044,1.396,8.65,1111122 
SCCF RECON,ioos:station:SCCF:56:1,2016-12-04T19:00:00Z,26.4645,-82.1044,1.5,9.09,1111122 
SCCF RECON,ioos:station:SCCF:56:1,2016-12-04T20:00:00Z,26.4645,-82.1044,1.6,8.3,1111122 
SCCF RECON,ioos:station:SCCF:56:1,2016-12-04T21:00:00Z,26.4645,-82.1044,1.67,8.57,1111122 
SCCF RECON,ioos:station:SCCF:56:1,2016-12-04T22:00:00Z,26.4645,-82.1044,1.7,8.15,1111122 
SCCF RECON,ioos:station:SCCF:56:1,2016-12-04T23:00:00Z,26.4645,-82.1044,1.69,7.41,1111122 
SCCF RECON,ioos:station:SCCF:56:1,2016-12-05T00:00:00Z,26.4645,-82.1044,1.65,8.08,1111122 
SCCF RECON,ioos:station:SCCF:56:1,2016-12-05T01:00:00Z,26.4645,-82.1044,1.61,7.35,1111122 
SCCF RECON,ioos:station:SCCF:56:1,2016-12-05T02:00:00Z,26.4645,-82.1044,1.57,7.09,1111122 
SCCF RECON,ioos:station:SCCF:56:1,2016-12-05T03:00:00Z,26.4645,-82.1044,1.6,6.77,1111122 
SCCF RECON,ioos:station:SCCF:56:1,2016-12-05T04:00:00Z,26.4645,-82.1044,1.63,6.4,1111122 
SCCF RECON,ioos:station:SCCF:56:1,2016-12-05T05:00:00Z,26.4645,-82.1044,1.65,6.35,1111122 
SCCF RECON,ioos:station:SCCF:56:1,2016-12-05T06:00:00Z,26.4645,-82.1044,1.709,5.42,1111122 
SCCF RECON,ioos:station:SCCF:56:1,2016-12-05T07:00:00Z,26.4645,-82.1044,1.76,6.37,1111122 
SCCF RECON,ioos:station:SCCF:56:1,2016-12-05T08:00:00Z,26.4645,-82.1044,1.79,6.02,1111122 
SCCF RECON,ioos:station:SCCF:56:1,2016-12-05T09:00:00Z,26.4645,-82.1044,1.78,5.86,1111122 
SCCF RECON,ioos:station:SCCF:56:1,2016-12-05T10:00:00Z,26.4645,-82.1044,1.76,6.04,1111122 
SCCF RECON,ioos:station:SCCF:56:1,2016-12-05T11:00:00Z,26.4645,-82.1044,1.67,5.42,1111122 
SCCF RECON,ioos:station:SCCF:56:1,2016-12-05T12:00:00Z,26.4645,-82.1044,1.574,5.05,1111122 
SCCF RECON,ioos:station:SCCF:56:1,2016-12-05T13:00:00Z,26.4645,-82.1044,1.45,4.63,1111122 
SCCF RECON,ioos:station:SCCF:56:1,2016-12-05T14:00:00Z,26.4645,-82.1044,1.348,4.2,1111122 
SCCF RECON,ioos:station:SCCF:56:1,2016-12-05T15:00:00Z,26.4645,-82.1044,1.25,4.07,1111122 
SCCF RECON,ioos:station:SCCF:56:1,2016-12-05T16:00:00Z,26.4645,-82.1044,1.19,4.29,1111122 
SCCF RECON,ioos:station:SCCF:56:1,2016-12-05T17:00:00Z,26.4645,-82.1044,1.22,4.47,1111122 
SCCF RECON,ioos:station:SCCF:56:1,2016-12-05T18:00:00Z,26.4645,-82.1044,1.302,7.95,1111122 
SCCF RECON,ioos:station:SCCF:56:1,2016-12-05T19:00:00Z,26.4645,-82.1044,1.41,7.84,1111122 
SCCF RECON,ioos:station:SCCF:56:1,2016-12-05T20:00:00Z,26.4645,-82.1044,1.503,8.92,1111122 
SCCF RECON,ioos:station:SCCF:56:1,2016-12-05T21:00:00Z,26.4645,-82.1044,1.619,8.26,1111122 
SCCF RECON,ioos:station:SCCF:56:1,2016-12-05T22:00:00Z,26.4645,-82.1044,1.69,7.63,1111122 
SCCF RECON,ioos:station:SCCF:56:1,2016-12-05T23:00:00Z,26.4645,-82.1044,1.71,7.04,1111122 
SCCF RECON,ioos:station:SCCF:56:1,2016-12-06T00:00:00Z,26.4645,-82.1044,1.72,6.77,1111122 
SCCF RECON,ioos:station:SCCF:56:1,2016-12-06T01:00:00Z,26.4645,-82.1044,1.69,6.71,1111122 
SCCF RECON,ioos:station:SCCF:56:1,2016-12-06T02:00:00Z,26.4645,-82.1044,1.655,6.6,1111122 
SCCF RECON,ioos:station:SCCF:56:1,2016-12-06T03:00:00Z,26.4645,-82.1044,1.617,6.33,1111122 
SCCF RECON,ioos:station:SCCF:56:1,2016-12-06T04:00:00Z,26.4645,-82.1044,1.62,5.93,1111122 
SCCF RECON,ioos:station:SCCF:56:1,2016-12-06T05:00:00Z,26.4645,-82.1044,1.62,5.89,1111122 
SCCF RECON,ioos:station:SCCF:56:1,2016-12-06T06:00:00Z,26.4645,-82.1044,1.65,5.92,1111122 
SCCF RECON,ioos:station:SCCF:56:1,2016-12-06T07:00:00Z,26.4645,-82.1044,1.7,5.71,1111122 
SCCF RECON,ioos:station:SCCF:56:1,2016-12-06T08:00:00Z,26.4645,-82.1044,1.761,5.79,1111122 
SCCF RECON,ioos:station:SCCF:56:1,2016-12-06T09:00:00Z,26.4645,-82.1044,1.82,5.75,1111122 
SCCF RECON,ioos:station:SCCF:56:1,2016-12-06T10:00:00Z,26.4645,-82.1044,1.82,5.41,1111122 
SCCF RECON,ioos:station:SCCF:56:1,2016-12-06T11:00:00Z,26.4645,-82.1044,1.77,5.64,1111122 
SCCF RECON,ioos:station:SCCF:56:1,2016-12-06T12:00:00Z,26.4645,-82.1044,1.71,5.19,1111122 
SCCF RECON,ioos:station:SCCF:56:1,2016-12-06T13:00:00Z,26.4645,-82.1044,1.63,4.95,1111122 
SCCF RECON,ioos:station:SCCF:56:1,2016-12-06T14:00:00Z,26.4645,-82.1044,1.52,4.3,1111122 
SCCF RECON,ioos:station:SCCF:56:1,2016-12-06T15:00:00Z,26.4645,-82.1044,1.409,4.12,1111122 
SCCF RECON,ioos:station:SCCF:56:1,2016-12-06T16:00:00Z,26.4645,-82.1044,1.3,4.05,1111122 
SCCF RECON,ioos:station:SCCF:56:1,2016-12-06T17:00:00Z,26.4645,-82.1044,1.23,4.35,1111122 
SCCF RECON,ioos:station:SCCF:56:1,2016-12-06T18:00:00Z,26.4645,-82.1044,1.26,4.62,1111122 
SCCF RECON,ioos:station:SCCF:56:1,2016-12-06T19:00:00Z,26.4645,-82.1044,1.359,5.41,1111122 
SCCF RECON,ioos:station:SCCF:56:1,2016-12-06T20:00:00Z,26.4645,-82.1044,1.48,7.03,1111122 
SCCF RECON,ioos:station:SCCF:56:1,2016-12-06T21:00:00Z,26.4645,-82.1044,1.58,6.76,1111122 
SCCF RECON,ioos:station:SCCF:56:1,2016-12-06T22:00:00Z,26.4645,-82.1044,1.67,6.49,1111122 
SCCF RECON,ioos:station:SCCF:56:1,2016-12-06T23:00:00Z,26.4645,-82.1044,1.67,6.5,1111122 
SCCF RECON,ioos:station:SCCF:56:1,2016-12-07T00:00:00Z,26.4645,-82.1044,1.67,6.38,1111122 
SCCF RECON,ioos:station:SCCF:56:1,2016-12-07T01:00:00Z,26.4645,-82.1044,1.65,6.13,1111122 
SCCF RECON,ioos:station:SCCF:56:1,2016-12-07T02:00:00Z,26.4645,-82.1044,1.61,5.98,1111122 
SCCF RECON,ioos:station:SCCF:56:1,2016-12-07T03:00:00Z,26.4645,-82.1044,1.57,5.94,1111122 
SCCF RECON,ioos:station:SCCF:56:1,2016-12-07T04:00:00Z,26.4645,-82.1044,1.53,5.46,1111122 
SCCF RECON,ioos:station:SCCF:56:1,2016-12-07T05:00:00Z,26.4645,-82.1044,1.47,4.9,1111122 
SCCF RECON,ioos:station:SCCF:56:1,2016-12-07T06:00:00Z,26.4645,-82.1044,1.411,4.71,1111122 
SCCF RECON,ioos:station:SCCF:56:1,2016-12-07T07:00:00Z,26.4645,-82.1044,1.43,4.64,1111122 
SCCF RECON,ioos:station:SCCF:56:1,2016-12-07T08:00:00Z,26.4645,-82.1044,1.51,4.08,1111122 
SCCF RECON,ioos:station:SCCF:56:1,2016-12-07T09:00:00Z,26.4645,-82.1044,1.61,3.58,1111122 
SCCF RECON,ioos:station:SCCF:56:1,2016-12-07T10:00:00Z,26.4645,-82.1044,1.68,4.21,1111122 
SCCF RECON,ioos:station:SCCF:56:1,2016-12-07T11:00:00Z,26.4645,-82.1044,1.69,4.79,1111122 
SCCF RECON,ioos:station:SCCF:56:1,2016-12-07T12:00:00Z,26.4645,-82.1044,1.67,4.67,1111122 
SCCF RECON,ioos:station:SCCF:56:1,2016-12-07T13:00:00Z,26.4645,-82.1044,1.608,4.15,1111122 
SCCF RECON,ioos:station:SCCF:56:1,2016-12-07T14:00:00Z,26.4645,-82.1044,1.519,4.22,1111122 
SCCF RECON,ioos:station:SCCF:56:1,2016-12-07T15:00:00Z,26.4645,-82.1044,1.429,3.43,1111122 
SCCF RECON,ioos:station:SCCF:56:1,2016-12-07T16:00:00Z,26.4645,-82.1044,1.36,3.21,1111122 
SCCF RECON,ioos:station:SCCF:56:1,2016-12-07T17:00:00Z,26.4645,-82.1044,1.3,3.4,1111122 
SCCF RECON,ioos:station:SCCF:56:1,2016-12-07T18:00:00Z,26.4645,-82.1044,1.25,3.49,1111122 
SCCF RECON,ioos:station:SCCF:56:1,2016-12-07T19:00:00Z,26.4645,-82.1044,1.259,3.69,1111122 
SCCF RECON,ioos:station:SCCF:56:1,2016-12-07T20:00:00Z,26.4645,-82.1044,1.36,7.67,1111122 
SCCF RECON,ioos:station:SCCF:56:1,2016-12-07T21:00:00Z,26.4645,-82.1044,1.46,8.32,1111122 
SCCF RECON,ioos:station:SCCF:56:1,2016-12-07T22:00:00Z,26.4645,-82.1044,1.57,7.99,1111122 
SCCF RECON,ioos:station:SCCF:56:1,2016-12-07T23:00:00Z,26.4645,-82.1044,1.67,7.14,1111122 
SCCF RECON,ioos:station:SCCF:56:1,2016-12-08T00:00:00Z,26.4645,-82.1044,1.75,6.97,1111122 
SCCF RECON,ioos:station:SCCF:56:1,2016-12-08T01:00:00Z,26.4645,-82.1044,1.76,6.71,1111122 
SCCF RECON,ioos:station:SCCF:56:1,2016-12-08T02:00:00Z,26.4645,-82.1044,1.71,6.59,1111122 
SCCF RECON,ioos:station:SCCF:56:1,2016-12-08T03:00:00Z,26.4645,-82.1044,1.63,6.43,1111122 
SCCF RECON,ioos:station:SCCF:56:1,2016-12-08T04:00:00Z,26.4645,-82.1044,1.54,6.12,1111122 
SCCF RECON,ioos:station:SCCF:56:1,2016-12-08T05:00:00Z,26.4645,-82.1044,1.46,5.32,1111122 
SCCF RECON,ioos:station:SCCF:56:1,2016-12-08T06:00:00Z,26.4645,-82.1044,1.39,4.84,1111122 
SCCF RECON,ioos:station:SCCF:56:1,2016-12-08T07:00:00Z,26.4645,-82.1044,1.35,4.39,1111122 
SCCF RECON,ioos:station:SCCF:56:1,2016-12-08T08:00:00Z,26.4645,-82.1044,1.36,4.07,1111122 
SCCF RECON,ioos:station:SCCF:56:1,2016-12-08T09:00:00Z,26.4645,-82.1044,1.44,4.54,1111122 
SCCF RECON,ioos:station:SCCF:56:1,2016-12-08T10:00:00Z,26.4645,-82.1044,1.53,5.29,1111122 
SCCF RECON,ioos:station:SCCF:56:1,2016-12-08T11:00:00Z,26.4645,-82.1044,1.609,3.9,1111122 
SCCF RECON,ioos:station:SCCF:56:1,2016-12-08T12:00:00Z,26.4645,-82.1044,1.65,4.32,1111122 
SCCF RECON,ioos:station:SCCF:56:1,2016-12-08T13:00:00Z,26.4645,-82.1044,1.62,4.82,1111122 
SCCF RECON,ioos:station:SCCF:56:1,2016-12-08T14:00:00Z,26.4645,-82.1044,1.59,4.6,1111122 
SCCF RECON,ioos:station:SCCF:56:1,2016-12-08T15:00:00Z,26.4645,-82.1044,1.54,4.55,1111122 
SCCF RECON,ioos:station:SCCF:56:1,2016-12-08T16:00:00Z,26.4645,-82.1044,1.462,4.07,1111122 
SCCF RECON,ioos:station:SCCF:56:1,2016-12-08T17:00:00Z,26.4645,-82.1044,1.404,3.86,1111122 
SCCF RECON,ioos:station:SCCF:56:1,2016-12-08T18:00:00Z,26.4645,-82.1044,1.33,4.13,1111122 
SCCF RECON,ioos:station:SCCF:56:1,2016-12-08T19:00:00Z,26.4645,-82.1044,1.28,3.9,1111122 
SCCF RECON,ioos:station:SCCF:56:1,2016-12-08T20:00:00Z,26.4645,-82.1044,1.247,4.18,1111122 
SCCF RECON,ioos:station:SCCF:56:1,2016-12-08T21:00:00Z,26.4645,-82.1044,1.31,6.53,1111122 
SCCF RECON,ioos:station:SCCF:56:1,2016-12-08T22:00:00Z,26.4645,-82.1044,1.443,10.13,1111122 
SCCF RECON,ioos:station:SCCF:56:1,2016-12-08T23:00:00Z,26.4645,-82.1044,1.555,9.11,1111122 
SCCF RECON,ioos:station:SCCF:56:1,2016-12-09T00:00:00Z,26.4645,-82.1044,1.65,8.2,1111122 
SCCF RECON,ioos:station:SCCF:56:1,2016-12-09T01:00:00Z,26.4645,-82.1044,1.71,6.44,1111122 
SCCF RECON,ioos:station:SCCF:56:1,2016-12-09T02:00:00Z,26.4645,-82.1044,1.73,6.03,1111122 
SCCF RECON,ioos:station:SCCF:56:1,2016-12-09T03:00:00Z,26.4645,-82.1044,1.65,6.09,1111122 
SCCF RECON,ioos:station:SCCF:56:1,2016-12-09T04:00:00Z,26.4645,-82.1044,1.57,5.93,1111122 
SCCF RECON,ioos:station:SCCF:56:1,2016-12-09T05:00:00Z,26.4645,-82.1044,1.49,5.43,1111122 
SCCF RECON,ioos:station:SCCF:56:1,2016-12-09T06:00:00Z,26.4645,-82.1044,1.381,4.87,1111122 
SCCF RECON,ioos:station:SCCF:56:1,2016-12-09T07:00:00Z,26.4645,-82.1044,1.28,4.55,1111122 
SCCF RECON,ioos:station:SCCF:56:1,2016-12-09T08:00:00Z,26.4645,-82.1044,1.195,4.04,1111122 
SCCF RECON,ioos:station:SCCF:56:1,2016-12-09T09:00:00Z,26.4645,-82.1044,1.179,3.77,1111122 
SCCF RECON,ioos:station:SCCF:56:1,2016-12-09T10:00:00Z,26.4645,-82.1044,1.25,4.34,1111122 
SCCF RECON,ioos:station:SCCF:56:1,2016-12-09T11:00:00Z,26.4645,-82.1044,1.35,5.36,1111122 
SCCF RECON,ioos:station:SCCF:56:1,2016-12-09T12:00:00Z,26.4645,-82.1044,1.457,5.5,1111122 
SCCF RECON,ioos:station:SCCF:56:1,2016-12-09T13:00:00Z,26.4645,-82.1044,1.531,5.47,1111122 
SCCF RECON,ioos:station:SCCF:56:1,2016-12-09T14:00:00Z,26.4645,-82.1044,1.59,5.73,1111122 
SCCF RECON,ioos:station:SCCF:56:1,2016-12-09T15:00:00Z,26.4645,-82.1044,1.549,5.61,1111122 
SCCF RECON,ioos:station:SCCF:56:1,2016-12-09T16:00:00Z,26.4645,-82.1044,1.496,5.84,1111122 
SCCF RECON,ioos:station:SCCF:56:1,2016-12-09T17:00:00Z,26.4645,-82.1044,1.417,5.74,1111122 
SCCF RECON,ioos:station:SCCF:56:1,2016-12-09T18:00:00Z,26.4645,-82.1044,1.32,5.72,1111122 
SCCF RECON,ioos:station:SCCF:56:1,2016-12-09T19:00:00Z,26.4645,-82.1044,1.241,6.01,1111122 
SCCF RECON,ioos:station:SCCF:56:1,2016-12-09T20:00:00Z,26.4645,-82.1044,1.199,6.65,1111122 
SCCF RECON,ioos:station:SCCF:56:1,2016-12-09T21:00:00Z,26.4645,-82.1044,1.26,9.06,1111122 
SCCF RECON,ioos:station:SCCF:56:1,2016-12-09T22:00:00Z,26.4645,-82.1044,1.377,8.91,1111122 
SCCF RECON,ioos:station:SCCF:56:1,2016-12-09T23:00:00Z,26.4645,-82.1044,1.501,8.67,1111122 
SCCF RECON,ioos:station:SCCF:56:1,2016-12-10T00:00:00Z,26.4645,-82.1044,1.618,7.56,1111122 
SCCF RECON,ioos:station:SCCF:56:1,2016-12-10T01:00:00Z,26.4645,-82.1044,1.691,7.1,1111122 
SCCF RECON,ioos:station:SCCF:56:1,2016-12-10T02:00:00Z,26.4645,-82.1044,1.701,6.74,1111122 
SCCF RECON,ioos:station:SCCF:56:1,2016-12-10T03:00:00Z,26.4645,-82.1044,1.64,6.69,1111122 
SCCF RECON,ioos:station:SCCF:56:1,2016-12-10T04:00:00Z,26.4645,-82.1044,1.577,6.67,1111122 
SCCF RECON,ioos:station:SCCF:56:1,2016-12-10T05:00:00Z,26.4645,-82.1044,1.47,6.32,1111122 
SCCF RECON,ioos:station:SCCF:56:1,2016-12-10T06:00:00Z,26.4645,-82.1044,1.383,5.86,1111122 
SCCF RECON,ioos:station:SCCF:56:1,2016-12-10T07:00:00Z,26.4645,-82.1044,1.281,5.99,1111122 
SCCF RECON,ioos:station:SCCF:56:1,2016-12-10T08:00:00Z,26.4645,-82.1044,1.179,5.71,1111122 
SCCF RECON,ioos:station:SCCF:56:1,2016-12-10T09:00:00Z,26.4645,-82.1044,1.108,5.51,1111122 
SCCF RECON,ioos:station:SCCF:56:1,2016-12-10T10:00:00Z,26.4645,-82.1044,1.09,5.19,1111122 
SCCF RECON,ioos:station:SCCF:56:1,2016-12-10T11:00:00Z,26.4645,-82.1044,1.18,5.71,1111122 
SCCF RECON,ioos:station:SCCF:56:1,2016-12-10T12:00:00Z,26.4645,-82.1044,1.328,6.42,1111122 
SCCF RECON,ioos:station:SCCF:56:1,2016-12-10T13:00:00Z,26.4645,-82.1044,1.433,5.88,1111122 
SCCF RECON,ioos:station:SCCF:56:1,2016-12-10T14:00:00Z,26.4645,-82.1044,1.52,5.87,1111122 
SCCF RECON,ioos:station:SCCF:56:1,2016-12-10T15:00:00Z,26.4645,-82.1044,1.59,6.78,1111122 
SCCF RECON,ioos:station:SCCF:56:1,2016-12-10T16:00:00Z,26.4645,-82.1044,1.57,7.05,1111122 
SCCF RECON,ioos:station:SCCF:56:1,2016-12-10T17:00:00Z,26.4645,-82.1044,1.508,7.11,1111122 
SCCF RECON,ioos:station:SCCF:56:1,2016-12-10T18:00:00Z,26.4645,-82.1044,1.41,6.93,1111122 
SCCF RECON,ioos:station:SCCF:56:1,2016-12-10T19:00:00Z,26.4645,-82.1044,1.342,7.44,1111122 
SCCF RECON,ioos:station:SCCF:56:1,2016-12-10T20:00:00Z,26.4645,-82.1044,1.32,7.55,1111122 
SCCF RECON,ioos:station:SCCF:56:1,2016-12-10T21:00:00Z,26.4645,-82.1044,1.321,7.62,1111122 
SCCF RECON,ioos:station:SCCF:56:1,2016-12-10T22:00:00Z,26.4645,-82.1044,1.39,9.83,1111122 
SCCF RECON,ioos:station:SCCF:56:1,2016-12-10T23:00:00Z,26.4645,-82.1044,1.51,9.08,1111122 
SCCF RECON,ioos:station:SCCF:56:1,2016-12-11T00:00:00Z,26.4645,-82.1044,1.658,8.04,1111122 
SCCF RECON,ioos:station:SCCF:56:1,2016-12-11T01:00:00Z,26.4645,-82.1044,1.74,7.36,1111122 
SCCF RECON,ioos:station:SCCF:56:1,2016-12-11T02:00:00Z,26.4645,-82.1044,1.788,7.4,1111122 
SCCF RECON,ioos:station:SCCF:56:1,2016-12-11T03:00:00Z,26.4645,-82.1044,1.81,7.13,1111122 
SCCF RECON,ioos:station:SCCF:56:1,2016-12-11T04:00:00Z,26.4645,-82.1044,1.791,7.0,1111122 
SCCF RECON,ioos:station:SCCF:56:1,2016-12-11T05:00:00Z,26.4645,-82.1044,1.67,6.71,1111122 
SCCF RECON,ioos:station:SCCF:56:1,2016-12-11T06:00:00Z,26.4645,-82.1044,1.53,6.69,1111122 
SCCF RECON,ioos:station:SCCF:56:1,2016-12-11T07:00:00Z,26.4645,-82.1044,1.39,6.32,1111122 
SCCF RECON,ioos:station:SCCF:56:1,2016-12-11T08:00:00Z,26.4645,-82.1044,1.268,6.04,1111122 
SCCF RECON,ioos:station:SCCF:56:1,2016-12-11T09:00:00Z,26.4645,-82.1044,1.163,5.75,1111122 
SCCF RECON,ioos:station:SCCF:56:1,2016-12-11T10:00:00Z,26.4645,-82.1044,1.093,5.39,1111122 
SCCF RECON,ioos:station:SCCF:56:1,2016-12-11T11:00:00Z,26.4645,-82.1044,1.14,5.3,1111122 
SCCF RECON,ioos:station:SCCF:56:1,2016-12-11T12:00:00Z,26.4645,-82.1044,1.304,6.67,1111122 
SCCF RECON,ioos:station:SCCF:56:1,2016-12-11T13:00:00Z,26.4645,-82.1044,1.45,6.55,1111122 
SCCF RECON,ioos:station:SCCF:56:1,2016-12-11T14:00:00Z,26.4645,-82.1044,1.55,7.01,1111122 
SCCF RECON,ioos:station:SCCF:56:1,2016-12-11T15:00:00Z,26.4645,-82.1044,1.64,7.43,1111122 
SCCF RECON,ioos:station:SCCF:56:1,2016-12-11T16:00:00Z,26.4645,-82.1044,1.72,7.45,1111122 
SCCF RECON,ioos:station:SCCF:56:1,2016-12-11T17:00:00Z,26.4645,-82.1044,1.74,7.59,1111122 
SCCF RECON,ioos:station:SCCF:56:1,2016-12-11T18:00:00Z,26.4645,-82.1044,1.69,7.85,1111122 
SCCF RECON,ioos:station:SCCF:56:1,2016-12-11T19:00:00Z,26.4645,-82.1044,1.6,7.52,1111122 
SCCF RECON,ioos:station:SCCF:56:1,2016-12-11T20:00:00Z,26.4645,-82.1044,1.53,7.38,1111122 
SCCF RECON,ioos:station:SCCF:56:1,2016-12-11T21:00:00Z,26.4645,-82.1044,1.5,7.35,1111122 